Other Public Products
Issued by NWS Grand Forks, ND

Home | Current Version | Previous Version | Graphics & Text | Print | Product List | Glossary On
Versions: 1 2 3 4 5 6 7 8 9 10 11 12 13 14 15 16 17 18 19 20 21 22 23 24 25 26 27 28 29 30 31 32 33 34 35 36 37 38 39 40 41 42 43 44 45 46 47 48 49 50
718
FPUS83 KFGF 181210
OPUFGF
PRAIRIE TO PINES WEATHER ROUNDUP
NATIONAL WEATHER SERVICE EASTERN NORTH DAKOTA/GRAND FORKS ND
600 AM CST SAT NOV 18 2017

 **SATELLITE DATA USED TO AUGMENT SKY COVER AT AUTOMATED STATIONS**
 *****  WEATHER ACROSS EASTERN NORTH DAKOTA  *****

CITY           SKY/WX    TMP DP  RH WIND       PRES   REMARKS
GRAND FORKS    FAIR      16  10  77 NW9       29.91R WCI   4
6HR MIN TEMP:  12; 6HR MAX TEMP:  18;

GRND FORKS AFB CLOUDY    16  10  74 NW12      29.91R WCI   3
GRND FORKS NWS   N/A     16 N/A N/A NW6         N/A  WCI   7
BUXTON         NOT AVBL
DEVILS LAKE    CLOUDY    14  10  84 NW20      29.94R WCI  -3
6HR MIN TEMP:  12; 6HR MAX TEMP:  14;

FARGO          CLOUDY    21  16  81 NW12      29.91R WCI   9
6HR MIN TEMP:  17; 6HR MAX TEMP:  22;

WAHPETON ARPT  NOT AVBL
$$

 *****  WEATHER ACROSS CENTRAL AND WESTERN NORTH DAKOTA  *****

CITY           SKY/WX    TMP DP  RH WIND       PRES   REMARKS
JAMESTOWN      CLOUDY    19  14  81 NW14      29.92R WCI   6
6HR MIN TEMP:  14; 6HR MAX TEMP:  19;

BISMARCK       FAIR      22  17  81 NW7       30.02R WCI  13
6HR MIN TEMP:  19; 6HR MAX TEMP:  29;

MINOT          MOCLDY    16  10  77 W20       30.00R WCI  -1
6HR MIN TEMP:  14; 6HR MAX TEMP:  18;

MINOT AFB      FAIR      14   9  80 NW23      29.99R WCI  -5
6HR MIN TEMP:  12; 6HR MAX TEMP:  15; 6HR PCP: TRACE;

GARRISON         N/A     14  10  84 NW18      30.02R WCI  -3
6HR MIN TEMP:  12; 6HR MAX TEMP:  17;

WILLISTON      FAIR      12   7  80 W8        30.07R WCI   0
6HR MIN TEMP:   9; 6HR MAX TEMP:  14;

DICKINSON      FAIR      13   9  84 NW10      30.01R WCI   0
6HR MIN TEMP:  12; 6HR MAX TEMP:  28;

HETTINGER      FAIR      19  15  84 NW12      30.01R WCI   7
6HR MIN TEMP:  19; 6HR MAX TEMP:  27;

$$

 *****  OTHER OBSERVATIONS NORTHEAST NORTH DAKOTA  *****

CITY           SKY/WX    TMP DP  RH WIND       PRES   REMARKS
WALHALLA       FAIR      16  10  79 NW15      29.92R WCI   1
LANGDON        FAIR      12  10  92 NW17      29.89R WCI  -5
CAVALIER       FAIR      16   9  73 NW14      29.91R WCI   1
GRAFTON        FAIR      16  10  79 NW12      29.93R WCI   3
CANDO          CLOUDY    12  12 100 W13       29.96R WCI  -3
FORT TOTTEN      N/A     15  10  80 NW8       29.95S WCI   4
ROLLA          FLURRIES  12   7  79 NW16G25   29.92R WCI  -4
RUGBY          PTSUNNY   10   9  92 W14       29.96R WCI  -5
 ***** THE ABOVE OBSERVATIONS ARE NON NWS ARE NOT QUALITY
        CONTROLLED AND MAY MIS-REPORT RAIN FOR SNOW...
$$

 *****  OTHER OBSERVATIONS SOUTHEAST NORTH DAKOTA *****

CITY           SKY/WX    TMP DP  RH WIND       PRES   REMARKS
COOPERSTOWN    PTSUNNY   18  14  86 NW12G17   29.91R WCI   5
VALLEY CITY    CLOUDY    18  18 100 NW14      29.93R WCI   4
OAKES            N/A     19  16  86 NW14      29.93R WCI   6
GWINNER          N/A     21  16  79 NW12      29.91R WCI   9
SHEYENNE NWR     N/A     22  17  81 NW8       29.95S WCI  12
BUFFALO        NOT AVBL
WYNDMERE       NOT AVBL
 ***** THE ABOVE OBSERVATIONS ARE NON NWS ARE NOT QUALITY
       CONTROLLED AND MAY MIS-REPORT RAIN FOR SNOW...
$$

  *****  WEATHER ACROSS NORTHERN MINNESOTA  *****

CITY           SKY/WX    TMP DP  RH WIND       PRES   REMARKS
FLAG ISLAND    CLOUDY    12  10  92 W8        29.82R WCI   1
WARROAD        CLOUDY    12   9  85 W5        29.84R WCI   4
ROSEAU         CLOUDY    16  10  79 W7        29.85R WCI   6
HALLOCK        CLOUDY    16  12  86 NW10      29.89R WCI   3
THF RVR FALLS  FAIR      15  11  83 NW12      29.87R WCI   2
6HR MIN TEMP:  14; 6HR MAX TEMP:  16; 6HR PCP: TRACE;

HALSTAD        NOT AVBL
FOSSTON        CLOUDY    16  12  86 NW8       29.86R WCI   5
BAUDETTE       CLOUDY    16  12  84 W8        29.81R WCI   5
6HR MIN TEMP:  14; 6HR MAX TEMP:  17;

WASKISH        MOCLDY    16  12  86 W7        29.82S WCI   6
CROOKSTON      FAIR      16  12  86 NW10      29.91R WCI   3
$$
  *****  WEATHER ACROSS CENTRAL AND WEST MINNESOTA  *****

CITY           SKY/WX    TMP DP  RH WIND       PRES   REMARKS
BEMIDJI        MOCLDY    14  12  91 W5        29.81S WCI   6
6HR MIN TEMP:  13; 6HR MAX TEMP:  20;

PARK RAPIDS    FAIR      18  14  84 NW9       29.81R WCI   7
6HR MIN TEMP:  17; 6HR MAX TEMP:  26;

WADENA         FAIR      18  16  93 W6        29.83R WCI   9
DETROIT LAKES  FAIR      18  16  93 NW9       29.86R WCI   6
MOORHEAD       CLOUDY    19  16  86 NW12      29.90S WCI   7
FERGUS FALLS   MOCLDY    18  16  93 N8        29.89S WCI   7
ELBOW LAKE     FAIR      19  16  90 W13       29.86R WCI   5
MORRIS MN      FAIR      19  18  93 NW10      29.84S WCI   8
STAPLES        FAIR      19  16  86 NW6       29.81R WCI  11
WHEATON        FAIR      19  16  86 W7        29.91R WCI  10
$$
  *****  WEATHER ELSEWHERE ACROSS MINNESOTA  *****

CITY           SKY/WX    TMP DP  RH WIND       PRES   REMARKS
DULUTH         MOCLDY    25  23  92 NW12      29.72R WCI  14
6HR MIN TEMP:  25; 6HR MAX TEMP:  31;

INTRNTL FALLS  FAIR      14  11  87 W3        29.79R FOG
6HR MIN TEMP:  13; 6HR MAX TEMP:  21;

ELY            CLOUDY    25  21  86 CALM      29.72F
CLOQUET        MOCLDY    25  21  86 NW10G17   29.74R VSB 1   WCI  15
BRAINERD       FAIR      24  18  77 NW5       29.78S WCI  18
6HR MIN TEMP:  23; 6HR MAX TEMP:  32;

HIBBING        FAIR      18  15  88 N6        29.74S WCI  10
6HR MIN TEMP:  18; 6HR MAX TEMP:  27;

ALEXANDRIA     FAIR      22  19  89 NW9       29.82R WCI  12
6HR MIN TEMP:  22; 6HR MAX TEMP:  29;

SAINT CLOUD    FAIR      29  25  85 NW9       29.78S WCI  20
6HR MIN TEMP:  29; 6HR MAX TEMP:  33;

MINNEAPOLIS    CLOUDY    34  32  92 N9        29.74R
6HR MIN TEMP:  34; 6HR MAX TEMP:  36;

$$

  *****  WEATHER ACROSS SOUTH DAKOTA  *****

CITY           SKY/WX    TMP DP  RH WIND       PRES   REMARKS
SIOUX FALLS    FAIR      33  25  72 N9        29.85R
6HR MIN TEMP:  33; 6HR MAX TEMP:  37;

BROOKINGS      FAIR      26  21  81 NW8       29.84R WCI  18
WATERTOWN      FAIR      24  20  84 NW15      29.85R WCI  11
6HR MIN TEMP:  22; 6HR MAX TEMP:  30;

HURON          FAIR      22  18  85 N5        29.91R WCI  16
6HR MIN TEMP:  22; 6HR MAX TEMP:  33;

SISSETON         N/A     21  17  84 NW10      29.89R WCI  10
ABERDEEN       FAIR      17  15  92 N6        29.93R WCI   9
6HR MIN TEMP:  17; 6HR MAX TEMP:  27;

MITCHELL       FAIR      28  21  75 NW7       29.91R WCI  21
PIERRE         FAIR      32  29  88 NW10      29.95R WCI  24
6HR MIN TEMP:  32; 6HR MAX TEMP:  39; 6HR PCP: TRACE;

MOBRIDGE       FAIR      26  20  77 N16G28    29.95R WCI  14
RAPID CITY     FAIR      34  20  56 NW21      30.04R WCI  22
6HR MIN TEMP:  30; 6HR MAX TEMP:  37;

$$

  *****  SOME WEATHER IN NEARBY STATES *****

CITY           SKY/WX    TMP DP  RH WIND       PRES   REMARKS
GLASGOW MT     FAIR      10   7  87 CALM      30.08R
6HR MIN TEMP:   9; 6HR MAX TEMP:  15;

GREAT FALLS MT CLOUDY    35  19  52 SW21G30   30.06R WCI  24
6HR MIN TEMP:  27; 6HR MAX TEMP:  35;

CHEYENNE WY    FAIR      25  17  72 NW14G24   30.12R WCI  13
6HR MIN TEMP:  23; 6HR MAX TEMP:  31; 6HR PCP:  0.02;

SCOTTSBLUFF NE FAIR      31  18  58 NW13      30.12R WCI  21
6HR MIN TEMP:  30; 6HR MAX TEMP:  39;

OMAHA NE       MOCLDY    38  33  82 N20G31    29.76R
6HR MIN TEMP:  38; 6HR MAX TEMP:  48; 6HR PCP:  0.22;

DES MOINES IA  LGT RAIN  39  37  92 N12G24    29.65R
6HR MIN TEMP:  39; 6HR MAX TEMP:  46; 6HR PCP:  0.18;

DAVENPORT IA   LGT RAIN  41  39  93 N14       29.53R FOG
6HR MIN TEMP:  41; 6HR MAX TEMP:  44; 6HR PCP:  0.08;

CHICAGO IL     CLOUDY    44  41  89 N12       29.48F
6HR MIN TEMP:  44; 6HR MAX TEMP:  48; 6HR PCP:  0.03;

EAU CLAIRE WI  CLOUDY    35  32  88 N7        29.68S
6HR MIN TEMP:  35; 6HR MAX TEMP:  35;

LA CROSSE WI   CLOUDY    38  35  89 N13       29.66R
6HR MIN TEMP:  38; 6HR MAX TEMP:  39;

$$

  *****  SOME NATIONAL WEATHER *****

CITY           SKY/WX    TMP DP  RH WIND       PRES   REMARKS
LA GUARDIA NY  MOCLDY    39  21  48 S6        29.98F



USA.gov is the U.S. government's official web portal to all federal, state and local government web resources and services.